#datetime,building,power
2023-03-13T00:00:00,mnr,7.31
2023-03-13T00:01:00,mnr,7.34
2023-03-13T00:02:00,mnr,7.36
2023-03-13T00:03:00,mnr,7.11
2023-03-13T00:04:00,mnr,7.26
2023-03-13T00:05:00,mnr,6.25
2023-03-13T00:06:00,mnr,6.23
2023-03-13T00:07:00,mnr,6.23
2023-03-13T00:08:00,mnr,6.09
2023-03-13T00:09:00,mnr,6.04
2023-03-13T00:10:00,mnr,6.81
2023-03-13T00:11:00,mnr,6.20
2023-03-13T00:12:00,mnr,6.18
2023-03-13T00:13:00,mnr,6.18
2023-03-13T00:14:00,mnr,6.28
2023-03-13T00:15:00,mnr,6.37
2023-03-13T00:16:00,mnr,6.34
2023-03-13T00:17:00,mnr,6.43
2023-03-13T00:18:00,mnr,6.25
2023-03-13T00:19:00,mnr,6.21
2023-03-13T00:20:00,mnr,6.31
2023-03-13T00:21:00,mnr,6.91
2023-03-13T00:22:00,mnr,6.35
2023-03-13T00:23:00,mnr,6.27
2023-03-13T00:24:00,mnr,6.32
2023-03-13T00:25:00,mnr,6.26
2023-03-13T00:26:00,mnr,6.50
2023-03-13T00:27:00,mnr,5.80
2023-03-13T00:28:00,mnr,5.80
2023-03-13T00:29:00,mnr,5.95
2023-03-13T00:30:00,mnr,5.90
2023-03-13T00:31:00,mnr,6.05
2023-03-13T00:32:00,mnr,6.05
2023-03-13T00:33:00,mnr,7.32
2023-03-13T00:34:00,mnr,7.29
2023-03-13T00:35:00,mnr,7.90
2023-03-13T00:36:00,mnr,7.91
2023-03-13T00:37:00,mnr,7.98
2023-03-13T00:38:00,mnr,7.99
2023-03-13T00:39:00,mnr,7.45
2023-03-13T00:40:00,mnr,8.45
2023-03-13T00:41:00,mnr,8.15
2023-03-13T00:42:00,mnr,8.15
2023-03-13T00:43:00,mnr,8.22
2023-03-13T00:44:00,mnr,9.27
2023-03-13T00:45:00,mnr,8.57
2023-03-13T00:46:00,mnr,8.36
2023-03-13T00:47:00,mnr,8.95
2023-03-13T00:48:00,mnr,8.71
2023-03-13T00:49:00,mnr,8.36
2023-03-13T00:50:00,mnr,7.71
2023-03-13T00:51:00,mnr,8.32
2023-03-13T00:52:00,mnr,7.67
2023-03-13T00:53:00,mnr,7.86
2023-03-13T00:54:00,mnr,7.13
2023-03-13T00:55:00,mnr,7.12
2023-03-13T00:56:00,mnr,6.98
2023-03-13T00:57:00,mnr,7.30
2023-03-13T00:58:00,mnr,7.10
2023-03-13T00:59:00,mnr,7.10
2023-03-13T01:00:00,mnr,7.04
2023-03-13T01:01:00,mnr,7.04
2023-03-13T01:02:00,mnr,7.05
2023-03-13T01:03:00,mnr,7.07
2023-03-13T01:04:00,mnr,7.11
2023-03-13T01:05:00,mnr,7.10
2023-03-13T01:06:00,mnr,7.76
2023-03-13T01:07:00,mnr,7.85
2023-03-13T01:08:00,mnr,7.25
2023-03-13T01:09:00,mnr,7.42
2023-03-13T01:10:00,mnr,7.04
2023-03-13T01:11:00,mnr,6.75
2023-03-13T01:12:00,mnr,6.23
2023-03-13T01:13:00,mnr,6.28
2023-03-13T01:14:00,mnr,6.08
2023-03-13T01:15:00,mnr,6.31
2023-03-13T01:16:00,mnr,6.81
2023-03-13T01:17:00,mnr,6.67
2023-03-13T01:18:00,mnr,6.00
2023-03-13T01:19:00,mnr,6.08
2023-03-13T01:20:00,mnr,5.97
2023-03-13T01:21:00,mnr,6.08
2023-03-13T01:22:00,mnr,5.40
2023-03-13T01:23:00,mnr,5.85
2023-03-13T01:24:00,mnr,6.42
2023-03-13T01:25:00,mnr,5.47
2023-03-13T01:26:00,mnr,5.47
2023-03-13T01:27:00,mnr,5.41
2023-03-13T01:28:00,mnr,5.44
2023-03-13T01:29:00,mnr,5.27
2023-03-13T01:30:00,mnr,6.07
2023-03-13T01:31:00,mnr,5.82
2023-03-13T01:32:00,mnr,6.08
2023-03-13T01:33:00,mnr,5.25
2023-03-13T01:34:00,mnr,5.31
2023-03-13T01:35:00,mnr,5.25
2023-03-13T01:36:00,mnr,5.33
2023-03-13T01:37:00,mnr,5.27
2023-03-13T01:38:00,mnr,5.23
2023-03-13T01:39:00,mnr,5.22
2023-03-13T01:40:00,mnr,5.19
2023-03-13T01:41:00,mnr,5.77
2023-03-13T01:42:00,mnr,5.25
2023-03-13T01:43:00,mnr,5.22
2023-03-13T01:44:00,mnr,5.22
2023-03-13T01:45:00,mnr,5.25
2023-03-13T01:46:00,mnr,5.22
2023-03-13T01:47:00,mnr,4.72
2023-03-13T01:48:00,mnr,4.91
2023-03-13T01:49:00,mnr,5.21
2023-03-13T01:50:00,mnr,4.78
2023-03-13T01:51:00,mnr,4.68
2023-03-13T01:52:00,mnr,4.56
2023-03-13T01:53:00,mnr,4.68
2023-03-13T01:54:00,mnr,5.22
2023-03-13T01:55:00,mnr,5.32
2023-03-13T01:56:00,mnr,5.89
2023-03-13T01:57:00,mnr,5.33
2023-03-13T01:58:00,mnr,4.68
2023-03-13T01:59:00,mnr,4.73
2023-03-13T02:00:00,mnr,5.26
2023-03-13T02:01:00,mnr,4.66
2023-03-13T02:02:00,mnr,4.65
2023-03-13T02:03:00,mnr,4.79
2023-03-13T02:04:00,mnr,4.80
2023-03-13T02:05:00,mnr,4.80
2023-03-13T02:06:00,mnr,5.97
2023-03-13T02:07:00,mnr,4.93
2023-03-13T02:08:00,mnr,4.58
2023-03-13T02:09:00,mnr,4.53
2023-03-13T02:10:00,mnr,5.12
2023-03-13T02:11:00,mnr,4.63
2023-03-13T02:12:00,mnr,4.59
2023-03-13T02:13:00,mnr,4.72
2023-03-13T02:14:00,mnr,5.40
2023-03-13T02:15:00,mnr,4.63
2023-03-13T02:16:00,mnr,4.71
2023-03-13T02:17:00,mnr,4.66
2023-03-13T02:18:00,mnr,6.00
2023-03-13T02:19:00,mnr,4.66
2023-03-13T02:20:00,mnr,5.04
2023-03-13T02:21:00,mnr,4.72
2023-03-13T02:22:00,mnr,5.34
2023-03-13T02:23:00,mnr,4.66
2023-03-13T02:24:00,mnr,4.78
2023-03-13T02:25:00,mnr,4.68
2023-03-13T02:26:00,mnr,5.03
2023-03-13T02:27:00,mnr,4.98
2023-03-13T02:28:00,mnr,4.83
2023-03-13T02:29:00,mnr,4.89
2023-03-13T02:30:00,mnr,5.49
2023-03-13T02:31:00,mnr,4.92
2023-03-13T02:32:00,mnr,4.99
2023-03-13T02:33:00,mnr,5.22
2023-03-13T02:34:00,mnr,4.95
2023-03-13T02:35:00,mnr,4.89
2023-03-13T02:36:00,mnr,5.00
2023-03-13T02:37:00,mnr,5.01
2023-03-13T02:38:00,mnr,4.98
2023-03-13T02:39:00,mnr,5.67
2023-03-13T02:40:00,mnr,5.04
2023-03-13T02:41:00,mnr,5.04
2023-03-13T02:42:00,mnr,5.11
2023-03-13T02:43:00,mnr,5.75
2023-03-13T02:44:00,mnr,5.04
2023-03-13T02:45:00,mnr,5.05
2023-03-13T02:46:00,mnr,5.19
2023-03-13T02:47:00,mnr,5.77
2023-03-13T02:48:00,mnr,5.66
2023-03-13T02:49:00,mnr,5.24
2023-03-13T02:50:00,mnr,5.15
2023-03-13T02:51:00,mnr,5.15
2023-03-13T02:52:00,mnr,5.13
2023-03-13T02:53:00,mnr,5.08
2023-03-13T02:54:00,mnr,5.82
2023-03-13T02:55:00,mnr,6.61
2023-03-13T02:56:00,mnr,5.92
2023-03-13T02:57:00,mnr,5.85
2023-03-13T02:58:00,mnr,5.82
2023-03-13T02:59:00,mnr,5.90
2023-03-13T03:00:00,mnr,6.68
2023-03-13T03:01:00,mnr,6.06
2023-03-13T03:02:00,mnr,6.04
2023-03-13T03:03:00,mnr,6.07
2023-03-13T03:04:00,mnr,6.12
2023-03-13T03:05:00,mnr,6.23
2023-03-13T03:06:00,mnr,6.12
2023-03-13T03:07:00,mnr,6.12
2023-03-13T03:08:00,mnr,6.04
2023-03-13T03:09:00,mnr,6.66
2023-03-13T03:10:00,mnr,6.65
2023-03-13T03:11:00,mnr,6.03
2023-03-13T03:12:00,mnr,5.57
2023-03-13T03:13:00,mnr,5.52
2023-03-13T03:14:00,mnr,5.53
2023-03-13T03:15:00,mnr,5.20
2023-03-13T03:16:00,mnr,5.19
2023-03-13T03:17:00,mnr,5.16
2023-03-13T03:18:00,mnr,5.14
2023-03-13T03:19:00,mnr,5.58
2023-03-13T03:20:00,mnr,6.29
2023-03-13T03:21:00,mnr,7.06
2023-03-13T03:22:00,mnr,6.41
2023-03-13T03:23:00,mnr,6.38
2023-03-13T03:24:00,mnr,6.76
2023-03-13T03:25:00,mnr,6.49
2023-03-13T03:26:00,mnr,7.20
2023-03-13T03:27:00,mnr,6.57
2023-03-13T03:28:00,mnr,6.83
2023-03-13T03:29:00,mnr,6.58
2023-03-13T03:30:00,mnr,7.61
2023-03-13T03:31:00,mnr,6.72
2023-03-13T03:32:00,mnr,6.55
2023-03-13T03:33:00,mnr,6.69
2023-03-13T03:34:00,mnr,6.68
2023-03-13T03:35:00,mnr,5.42
2023-03-13T03:36:00,mnr,5.91
2023-03-13T03:37:00,mnr,5.83
2023-03-13T03:38:00,mnr,6.14
2023-03-13T03:39:00,mnr,5.64
2023-03-13T03:40:00,mnr,5.56
2023-03-13T03:41:00,mnr,5.65
2023-03-13T03:42:00,mnr,5.61
2023-03-13T03:43:00,mnr,5.56
2023-03-13T03:44:00,mnr,5.12
2023-03-13T03:45:00,mnr,5.58
2023-03-13T03:46:00,mnr,5.57
2023-03-13T03:47:00,mnr,5.55
2023-03-13T03:48:00,mnr,6.23
2023-03-13T03:49:00,mnr,6.30
2023-03-13T03:50:00,mnr,5.48
2023-03-13T03:51:00,mnr,5.57
2023-03-13T03:52:00,mnr,4.96
2023-03-13T03:53:00,mnr,4.99
2023-03-13T03:54:00,mnr,4.94
2023-03-13T03:55:00,mnr,5.25
2023-03-13T03:56:00,mnr,5.46
2023-03-13T03:57:00,mnr,5.60
2023-03-13T03:58:00,mnr,4.99
2023-03-13T03:59:00,mnr,5.80
2023-03-13T04:00:00,mnr,6.39
2023-03-13T04:01:00,mnr,6.39
2023-03-13T04:02:00,mnr,6.63
2023-03-13T04:03:00,mnr,7.13
2023-03-13T04:04:00,mnr,8.42
2023-03-13T04:05:00,mnr,7.06
2023-03-13T04:06:00,mnr,7.31
2023-03-13T04:07:00,mnr,6.65
2023-03-13T04:08:00,mnr,7.15
2023-03-13T04:09:00,mnr,6.50
2023-03-13T04:10:00,mnr,6.54
2023-03-13T04:11:00,mnr,6.94
2023-03-13T04:12:00,mnr,6.44
2023-03-13T04:13:00,mnr,6.42
2023-03-13T04:14:00,mnr,6.47
2023-03-13T04:15:00,mnr,5.94
2023-03-13T04:16:00,mnr,6.04
2023-03-13T04:17:00,mnr,5.92
2023-03-13T04:18:00,mnr,5.64
2023-03-13T04:19:00,mnr,5.74
2023-03-13T04:20:00,mnr,5.32
2023-03-13T04:21:00,mnr,5.44
2023-03-13T04:22:00,mnr,5.34
2023-03-13T04:23:00,mnr,5.28
2023-03-13T04:24:00,mnr,5.87
2023-03-13T04:25:00,mnr,6.36
2023-03-13T04:26:00,mnr,5.38
2023-03-13T04:27:00,mnr,5.40
2023-03-13T04:28:00,mnr,5.32
2023-03-13T04:29:00,mnr,5.98
2023-03-13T04:30:00,mnr,5.41
2023-03-13T04:31:00,mnr,6.10
2023-03-13T04:32:00,mnr,5.98
2023-03-13T04:33:00,mnr,5.76
2023-03-13T04:34:00,mnr,5.51
2023-03-13T04:35:00,mnr,5.59
2023-03-13T04:36:00,mnr,5.51
2023-03-13T04:37:00,mnr,5.47
2023-03-13T04:38:00,mnr,6.00
2023-03-13T04:39:00,mnr,6.41
2023-03-13T04:40:00,mnr,6.21
2023-03-13T04:41:00,mnr,5.89
2023-03-13T04:42:00,mnr,5.91
2023-03-13T04:43:00,mnr,5.89
2023-03-13T04:44:00,mnr,6.01
2023-03-13T04:45:00,mnr,6.55
2023-03-13T04:46:00,mnr,5.94
2023-03-13T04:47:00,mnr,5.96
2023-03-13T04:48:00,mnr,6.30
2023-03-13T04:49:00,mnr,6.36
2023-03-13T04:50:00,mnr,6.25
2023-03-13T04:51:00,mnr,6.28
2023-03-13T04:52:00,mnr,6.48
2023-03-13T04:53:00,mnr,6.41
2023-03-13T04:54:00,mnr,5.85
2023-03-13T04:55:00,mnr,7.05
2023-03-13T04:56:00,mnr,7.28
2023-03-13T04:57:00,mnr,7.09
2023-03-13T04:58:00,mnr,7.28
2023-03-13T04:59:00,mnr,7.15
2023-03-13T05:00:00,mnr,7.03
2023-03-13T05:01:00,mnr,7.10
2023-03-13T05:02:00,mnr,7.52
2023-03-13T05:03:00,mnr,6.62
2023-03-13T05:04:00,mnr,7.90
2023-03-13T05:05:00,mnr,6.96
2023-03-13T05:06:00,mnr,7.63
2023-03-13T05:07:00,mnr,7.06
2023-03-13T05:08:00,mnr,7.08
2023-03-13T05:09:00,mnr,6.99
2023-03-13T05:10:00,mnr,7.17
2023-03-13T05:11:00,mnr,7.20
2023-03-13T05:12:00,mnr,7.86
2023-03-13T05:13:00,mnr,7.89
2023-03-13T05:14:00,mnr,7.18
2023-03-13T05:15:00,mnr,7.15
2023-03-13T05:16:00,mnr,7.17
2023-03-13T05:17:00,mnr,7.10
2023-03-13T05:18:00,mnr,7.12
2023-03-13T05:19:00,mnr,7.42
2023-03-13T05:20:00,mnr,7.31
2023-03-13T05:21:00,mnr,8.01
2023-03-13T05:22:00,mnr,7.35
2023-03-13T05:23:00,mnr,8.08
2023-03-13T05:24:00,mnr,7.02
2023-03-13T05:25:00,mnr,6.85
2023-03-13T05:26:00,mnr,8.52
2023-03-13T05:27:00,mnr,7.48
2023-03-13T05:28:00,mnr,7.40
2023-03-13T05:29:00,mnr,8.07
2023-03-13T05:30:00,mnr,8.64
2023-03-13T05:31:00,mnr,7.36
2023-03-13T05:32:00,mnr,6.72
2023-03-13T05:33:00,mnr,6.70
2023-03-13T05:34:00,mnr,6.77
2023-03-13T05:35:00,mnr,6.68
2023-03-13T05:36:00,mnr,6.88
2023-03-13T05:37:00,mnr,7.34
2023-03-13T05:38:00,mnr,6.61
2023-03-13T05:39:00,mnr,5.98
2023-03-13T05:40:00,mnr,6.07
2023-03-13T05:41:00,mnr,6.96
2023-03-13T05:42:00,mnr,5.84
2023-03-13T05:43:00,mnr,6.14
2023-03-13T05:44:00,mnr,5.72
2023-03-13T05:45:00,mnr,5.95
2023-03-13T05:46:00,mnr,5.76
2023-03-13T05:47:00,mnr,5.68
2023-03-13T05:48:00,mnr,5.84
2023-03-13T05:49:00,mnr,5.84
2023-03-13T05:50:00,mnr,5.41
2023-03-13T05:51:00,mnr,5.33
2023-03-13T05:52:00,mnr,5.29
2023-03-13T05:53:00,mnr,5.32
2023-03-13T05:54:00,mnr,8.68
2023-03-13T05:55:00,mnr,8.48
2023-03-13T05:56:00,mnr,7.07
2023-03-13T05:57:00,mnr,8.37
2023-03-13T05:58:00,mnr,7.33
2023-03-13T05:59:00,mnr,7.03
2023-03-13T06:00:00,mnr,7.31
2023-03-13T06:01:00,mnr,8.62
2023-03-13T06:02:00,mnr,10.13
2023-03-13T06:03:00,mnr,10.60
2023-03-13T06:04:00,mnr,11.39
2023-03-13T06:05:00,mnr,12.48
2023-03-13T06:06:00,mnr,15.39
2023-03-13T06:07:00,mnr,15.44
2023-03-13T06:08:00,mnr,14.16
2023-03-13T06:09:00,mnr,14.00
2023-03-13T06:10:00,mnr,13.20
2023-03-13T06:11:00,mnr,13.07
2023-03-13T06:12:00,mnr,14.01
2023-03-13T06:13:00,mnr,13.09
2023-03-13T06:14:00,mnr,13.12
2023-03-13T06:15:00,mnr,13.95
2023-03-13T06:16:00,mnr,13.11
2023-03-13T06:17:00,mnr,13.04
2023-03-13T06:18:00,mnr,12.89
2023-03-13T06:19:00,mnr,13.72
2023-03-13T06:20:00,mnr,12.99
2023-03-13T06:21:00,mnr,13.90
2023-03-13T06:22:00,mnr,13.75
2023-03-13T06:23:00,mnr,14.57
2023-03-13T06:24:00,mnr,13.64
2023-03-13T06:25:00,mnr,15.46
2023-03-13T06:26:00,mnr,14.83
2023-03-13T06:27:00,mnr,14.70
2023-03-13T06:28:00,mnr,14.60
2023-03-13T06:29:00,mnr,14.59
2023-03-13T06:30:00,mnr,14.72
2023-03-13T06:31:00,mnr,14.75
2023-03-13T06:32:00,mnr,15.32
2023-03-13T06:33:00,mnr,14.77
2023-03-13T06:34:00,mnr,16.81
2023-03-13T06:35:00,mnr,15.60
2023-03-13T06:36:00,mnr,14.65
2023-03-13T06:37:00,mnr,14.77
2023-03-13T06:38:00,mnr,14.84
2023-03-13T06:39:00,mnr,15.14
2023-03-13T06:40:00,mnr,15.03
2023-03-13T06:41:00,mnr,14.51
2023-03-13T06:42:00,mnr,15.27
2023-03-13T06:43:00,mnr,14.65
2023-03-13T06:44:00,mnr,14.56
2023-03-13T06:45:00,mnr,14.44
2023-03-13T06:46:00,mnr,14.40
2023-03-13T06:47:00,mnr,14.37
2023-03-13T06:48:00,mnr,14.38
2023-03-13T06:49:00,mnr,14.34
2023-03-13T06:50:00,mnr,14.31
2023-03-13T06:51:00,mnr,14.86
2023-03-13T06:52:00,mnr,14.02
2023-03-13T06:53:00,mnr,14.14
2023-03-13T06:54:00,mnr,22.27
2023-03-13T06:55:00,mnr,14.26
2023-03-13T06:56:00,mnr,14.21
2023-03-13T06:57:00,mnr,14.30
2023-03-13T06:58:00,mnr,14.54
2023-03-13T06:59:00,mnr,14.71
2023-03-13T07:00:00,mnr,14.86
2023-03-13T07:01:00,mnr,14.68
2023-03-13T07:02:00,mnr,14.66
2023-03-13T07:03:00,mnr,14.62
2023-03-13T07:04:00,mnr,14.71
2023-03-13T07:05:00,mnr,15.35
2023-03-13T07:06:00,mnr,15.23
2023-03-13T07:07:00,mnr,15.13
2023-03-13T07:08:00,mnr,14.59
2023-03-13T07:09:00,mnr,14.47
2023-03-13T07:10:00,mnr,14.40
2023-03-13T07:11:00,mnr,14.47
2023-03-13T07:12:00,mnr,14.45
2023-03-13T07:13:00,mnr,14.40
2023-03-13T07:14:00,mnr,14.36
2023-03-13T07:15:00,mnr,14.29
2023-03-13T07:16:00,mnr,14.56
2023-03-13T07:17:00,mnr,25.39
2023-03-13T07:18:00,mnr,15.58
2023-03-13T07:19:00,mnr,15.62
2023-03-13T07:20:00,mnr,14.53
2023-03-13T07:21:00,mnr,14.53
2023-03-13T07:22:00,mnr,15.71
2023-03-13T07:23:00,mnr,16.34
2023-03-13T07:24:00,mnr,14.59
2023-03-13T07:25:00,mnr,14.64
2023-03-13T07:26:00,mnr,14.62
2023-03-13T07:27:00,mnr,14.66
2023-03-13T07:28:00,mnr,14.61
2023-03-13T07:29:00,mnr,14.80
2023-03-13T07:30:00,mnr,14.86
2023-03-13T07:31:00,mnr,15.02
2023-03-13T07:32:00,mnr,15.01
2023-03-13T07:33:00,mnr,16.92
2023-03-13T07:34:00,mnr,14.95
2023-03-13T07:35:00,mnr,14.73
2023-03-13T07:36:00,mnr,15.15
2023-03-13T07:37:00,mnr,14.22
2023-03-13T07:38:00,mnr,13.66
2023-03-13T07:39:00,mnr,13.74
2023-03-13T07:40:00,mnr,13.72
2023-03-13T07:41:00,mnr,13.97
2023-03-13T07:42:00,mnr,13.81
2023-03-13T07:43:00,mnr,14.72
2023-03-13T07:44:00,mnr,13.90
2023-03-13T07:45:00,mnr,13.46
2023-03-13T07:46:00,mnr,12.90
2023-03-13T07:47:00,mnr,12.84
2023-03-13T07:48:00,mnr,12.95
2023-03-13T07:49:00,mnr,12.72
2023-03-13T07:50:00,mnr,13.37
2023-03-13T07:51:00,mnr,13.33
2023-03-13T07:52:00,mnr,13.79
2023-03-13T07:53:00,mnr,13.42
2023-03-13T07:54:00,mnr,13.32
2023-03-13T07:55:00,mnr,13.42
2023-03-13T07:56:00,mnr,13.49
2023-03-13T07:57:00,mnr,13.75
2023-03-13T07:58:00,mnr,14.44
2023-03-13T07:59:00,mnr,13.65
2023-03-13T08:00:00,mnr,13.47
2023-03-13T08:01:00,mnr,14.65
2023-03-13T08:02:00,mnr,13.51
2023-03-13T08:03:00,mnr,14.78
2023-03-13T08:04:00,mnr,15.95
2023-03-13T08:05:00,mnr,14.84
2023-03-13T08:06:00,mnr,13.51
2023-03-13T08:07:00,mnr,11.44
2023-03-13T08:08:00,mnr,13.63
2023-03-13T08:09:00,mnr,13.64
2023-03-13T08:10:00,mnr,13.69
2023-03-13T08:11:00,mnr,14.26
2023-03-13T08:12:00,mnr,14.29
2023-03-13T08:13:00,mnr,14.87
2023-03-13T08:14:00,mnr,14.81
2023-03-13T08:15:00,mnr,14.22
2023-03-13T08:16:00,mnr,14.20
2023-03-13T08:17:00,mnr,14.54
2023-03-13T08:18:00,mnr,14.28
2023-03-13T08:19:00,mnr,14.74
2023-03-13T08:20:00,mnr,14.81
2023-03-13T08:21:00,mnr,14.77
2023-03-13T08:22:00,mnr,14.87
2023-03-13T08:23:00,mnr,15.29
2023-03-13T08:24:00,mnr,14.65
2023-03-13T08:25:00,mnr,14.66
2023-03-13T08:26:00,mnr,14.68
2023-03-13T08:27:00,mnr,14.78
2023-03-13T08:28:00,mnr,14.75
2023-03-13T08:29:00,mnr,14.84
2023-03-13T08:30:00,mnr,15.50
2023-03-13T08:31:00,mnr,14.76
2023-03-13T08:32:00,mnr,14.61
2023-03-13T08:33:00,mnr,18.36
2023-03-13T08:34:00,mnr,15.08
2023-03-13T08:35:00,mnr,15.22
2023-03-13T08:36:00,mnr,17.19
2023-03-13T08:37:00,mnr,17.68
2023-03-13T08:38:00,mnr,17.68
2023-03-13T08:39:00,mnr,18.36
2023-03-13T08:40:00,mnr,17.93
2023-03-13T08:41:00,mnr,17.76
2023-03-13T08:42:00,mnr,17.63
2023-03-13T08:43:00,mnr,17.51
2023-03-13T08:44:00,mnr,17.60
2023-03-13T08:45:00,mnr,17.72
2023-03-13T08:46:00,mnr,17.18
2023-03-13T08:47:00,mnr,17.84
2023-03-13T08:48:00,mnr,17.16
2023-03-13T08:49:00,mnr,17.11
2023-03-13T08:50:00,mnr,17.18
2023-03-13T08:51:00,mnr,18.68
2023-03-13T08:52:00,mnr,17.14
2023-03-13T08:53:00,mnr,17.11
2023-03-13T08:54:00,mnr,18.43
2023-03-13T08:55:00,mnr,16.88
2023-03-13T08:56:00,mnr,16.18
2023-03-13T08:57:00,mnr,16.21
2023-03-13T08:58:00,mnr,15.74
2023-03-13T08:59:00,mnr,15.51
2023-03-13T09:00:00,mnr,15.63
2023-03-13T09:01:00,mnr,16.61
2023-03-13T09:02:00,mnr,17.57
2023-03-13T09:03:00,mnr,16.48
2023-03-13T09:04:00,mnr,17.21
2023-03-13T09:05:00,mnr,17.90
2023-03-13T09:06:00,mnr,17.48
2023-03-13T09:07:00,mnr,16.58
2023-03-13T09:08:00,mnr,17.41
2023-03-13T09:09:00,mnr,17.62
2023-03-13T09:10:00,mnr,18.39
2023-03-13T09:11:00,mnr,17.88
2023-03-13T09:12:00,mnr,18.45
2023-03-13T09:13:00,mnr,18.12
2023-03-13T09:14:00,mnr,18.09
2023-03-13T09:15:00,mnr,18.06
2023-03-13T09:16:00,mnr,17.89
2023-03-13T09:17:00,mnr,18.34
2023-03-13T09:18:00,mnr,17.78
2023-03-13T09:19:00,mnr,20.05
2023-03-13T09:20:00,mnr,18.33
2023-03-13T09:21:00,mnr,17.81
2023-03-13T09:22:00,mnr,17.77
2023-03-13T09:23:00,mnr,17.76
2023-03-13T09:24:00,mnr,17.79
2023-03-13T09:25:00,mnr,19.66
2023-03-13T09:26:00,mnr,18.07
2023-03-13T09:27:00,mnr,18.13
2023-03-13T09:28:00,mnr,18.10
2023-03-13T09:29:00,mnr,18.08
2023-03-13T09:30:00,mnr,17.67
2023-03-13T09:31:00,mnr,17.72
2023-03-13T09:32:00,mnr,18.50
2023-03-13T09:33:00,mnr,18.16
2023-03-13T09:34:00,mnr,18.83
2023-03-13T09:35:00,mnr,18.58
2023-03-13T09:36:00,mnr,18.03
2023-03-13T09:37:00,mnr,17.11
2023-03-13T09:38:00,mnr,19.16
2023-03-13T09:39:00,mnr,18.99
2023-03-13T09:40:00,mnr,28.43
2023-03-13T09:41:00,mnr,16.23
2023-03-13T09:42:00,mnr,19.42
2023-03-13T09:43:00,mnr,15.76
2023-03-13T09:44:00,mnr,18.83
2023-03-13T09:45:00,mnr,19.34
2023-03-13T09:46:00,mnr,20.44
2023-03-13T09:47:00,mnr,21.68
2023-03-13T09:48:00,mnr,21.47
2023-03-13T09:49:00,mnr,21.39
2023-03-13T09:50:00,mnr,18.99
2023-03-13T09:51:00,mnr,21.12
2023-03-13T09:52:00,mnr,21.64
2023-03-13T09:53:00,mnr,21.71
2023-03-13T09:54:00,mnr,21.64
2023-03-13T09:55:00,mnr,21.91
2023-03-13T09:56:00,mnr,22.94
2023-03-13T09:57:00,mnr,23.03
2023-03-13T09:58:00,mnr,23.23
2023-03-13T09:59:00,mnr,22.36
2023-03-13T10:00:00,mnr,22.19
2023-03-13T10:01:00,mnr,22.26
2023-03-13T10:02:00,mnr,22.16
2023-03-13T10:03:00,mnr,22.23
2023-03-13T10:04:00,mnr,22.26
2023-03-13T10:05:00,mnr,22.32
2023-03-13T10:06:00,mnr,22.37
2023-03-13T10:07:00,mnr,22.37
2023-03-13T10:08:00,mnr,23.24
2023-03-13T10:09:00,mnr,22.67
2023-03-13T10:10:00,mnr,21.62
2023-03-13T10:11:00,mnr,21.79
2023-03-13T10:12:00,mnr,22.94
2023-03-13T10:13:00,mnr,24.40
2023-03-13T10:14:00,mnr,26.14
2023-03-13T10:15:00,mnr,24.80
2023-03-13T10:16:00,mnr,24.23
2023-03-13T10:17:00,mnr,23.13
2023-03-13T10:18:00,mnr,22.99
2023-03-13T10:19:00,mnr,22.35
2023-03-13T10:20:00,mnr,22.35
2023-03-13T10:21:00,mnr,22.28
2023-03-13T10:22:00,mnr,23.24
2023-03-13T10:23:00,mnr,22.32
2023-03-13T10:24:00,mnr,22.21
2023-03-13T10:25:00,mnr,22.17
2023-03-13T10:26:00,mnr,22.16
2023-03-13T10:27:00,mnr,22.08
2023-03-13T10:28:00,mnr,22.18
2023-03-13T10:29:00,mnr,23.15
2023-03-13T10:30:00,mnr,21.28
2023-03-13T10:31:00,mnr,21.57
2023-03-13T10:32:00,mnr,22.20
2023-03-13T10:33:00,mnr,22.25
2023-03-13T10:34:00,mnr,22.97
2023-03-13T10:35:00,mnr,24.64
2023-03-13T10:36:00,mnr,22.66
2023-03-13T10:37:00,mnr,23.87
2023-03-13T10:38:00,mnr,22.46
2023-03-13T10:39:00,mnr,22.48
2023-03-13T10:40:00,mnr,22.42
2023-03-13T10:41:00,mnr,21.39
2023-03-13T10:42:00,mnr,22.58
2023-03-13T10:43:00,mnr,22.46
2023-03-13T10:44:00,mnr,23.36
2023-03-13T10:45:00,mnr,23.01
2023-03-13T10:46:00,mnr,24.58
2023-03-13T10:47:00,mnr,24.20
2023-03-13T10:48:00,mnr,23.33
2023-03-13T10:49:00,mnr,24.18
2023-03-13T10:50:00,mnr,24.96
2023-03-13T10:51:00,mnr,23.05
2023-03-13T10:52:00,mnr,23.84
2023-03-13T10:53:00,mnr,22.81
2023-03-13T10:54:00,mnr,24.24
2023-03-13T10:55:00,mnr,23.39
2023-03-13T10:56:00,mnr,23.26
2023-03-13T10:57:00,mnr,23.28
2023-03-13T10:58:00,mnr,25.09
2023-03-13T10:59:00,mnr,23.92
2023-03-13T11:00:00,mnr,24.15
2023-03-13T11:01:00,mnr,23.34
2023-03-13T11:02:00,mnr,22.59
2023-03-13T11:03:00,mnr,23.53
2023-03-13T11:04:00,mnr,22.63
2023-03-13T11:05:00,mnr,35.33
2023-03-13T11:06:00,mnr,21.91
2023-03-13T11:07:00,mnr,23.02
2023-03-13T11:08:00,mnr,22.33
2023-03-13T11:09:00,mnr,32.30
2023-03-13T11:10:00,mnr,22.61
2023-03-13T11:11:00,mnr,22.61
2023-03-13T11:12:00,mnr,22.13
2023-03-13T11:13:00,mnr,21.97
2023-03-13T11:14:00,mnr,21.97
2023-03-13T11:15:00,mnr,22.83
2023-03-13T11:16:00,mnr,24.22
2023-03-13T11:17:00,mnr,23.57
2023-03-13T11:18:00,mnr,22.84
2023-03-13T11:19:00,mnr,23.65
2023-03-13T11:20:00,mnr,23.51
2023-03-13T11:21:00,mnr,23.40
2023-03-13T11:22:00,mnr,23.29
2023-03-13T11:23:00,mnr,23.46
2023-03-13T11:24:00,mnr,22.95
2023-03-13T11:25:00,mnr,23.50
2023-03-13T11:26:00,mnr,21.62
2023-03-13T11:27:00,mnr,22.24
2023-03-13T11:28:00,mnr,21.85
2023-03-13T11:29:00,mnr,22.29
2023-03-13T11:30:00,mnr,21.65
2023-03-13T11:31:00,mnr,22.31
2023-03-13T11:32:00,mnr,20.86
2023-03-13T11:33:00,mnr,20.93
2023-03-13T11:34:00,mnr,21.53
2023-03-13T11:35:00,mnr,21.05
2023-03-13T11:36:00,mnr,21.49
2023-03-13T11:37:00,mnr,22.49
2023-03-13T11:38:00,mnr,22.11
2023-03-13T11:39:00,mnr,21.69
2023-03-13T11:40:00,mnr,21.91
2023-03-13T11:41:00,mnr,22.51
2023-03-13T11:42:00,mnr,22.06
2023-03-13T11:43:00,mnr,22.18
2023-03-13T11:44:00,mnr,22.08
2023-03-13T11:45:00,mnr,22.13
2023-03-13T11:46:00,mnr,23.00
2023-03-13T11:47:00,mnr,22.12
2023-03-13T11:48:00,mnr,22.45
2023-03-13T11:49:00,mnr,21.97
2023-03-13T11:50:00,mnr,22.48
2023-03-13T11:51:00,mnr,21.80
2023-03-13T11:52:00,mnr,19.28
2023-03-13T11:53:00,mnr,19.27
2023-03-13T11:54:00,mnr,19.74
2023-03-13T11:55:00,mnr,19.99
2023-03-13T11:56:00,mnr,18.89
2023-03-13T11:57:00,mnr,18.92
2023-03-13T11:58:00,mnr,20.30
2023-03-13T11:59:00,mnr,20.92
2023-03-13T12:00:00,mnr,20.71
2023-03-13T12:01:00,mnr,22.28
2023-03-13T12:02:00,mnr,20.31
2023-03-13T12:03:00,mnr,20.22
2023-03-13T12:04:00,mnr,21.27
2023-03-13T12:05:00,mnr,20.04
2023-03-13T12:06:00,mnr,20.47
2023-03-13T12:07:00,mnr,20.09
2023-03-13T12:08:00,mnr,20.33
2023-03-13T12:09:00,mnr,19.83
2023-03-13T12:10:00,mnr,19.89
2023-03-13T12:11:00,mnr,21.60
2023-03-13T12:12:00,mnr,22.32
2023-03-13T12:13:00,mnr,21.68
2023-03-13T12:14:00,mnr,22.73
2023-03-13T12:15:00,mnr,22.98
2023-03-13T12:16:00,mnr,22.70
2023-03-13T12:17:00,mnr,33.77
2023-03-13T12:18:00,mnr,23.06
2023-03-13T12:19:00,mnr,23.13
2023-03-13T12:20:00,mnr,22.84
2023-03-13T12:21:00,mnr,22.75
2023-03-13T12:22:00,mnr,20.79
2023-03-13T12:23:00,mnr,21.85
2023-03-13T12:24:00,mnr,21.90
2023-03-13T12:25:00,mnr,20.88
2023-03-13T12:26:00,mnr,20.69
2023-03-13T12:27:00,mnr,20.97
2023-03-13T12:28:00,mnr,22.22
2023-03-13T12:29:00,mnr,23.25
2023-03-13T12:30:00,mnr,21.29
2023-03-13T12:31:00,mnr,20.64
2023-03-13T12:32:00,mnr,20.11
2023-03-13T12:33:00,mnr,20.68
2023-03-13T12:34:00,mnr,20.87
2023-03-13T12:35:00,mnr,20.59
2023-03-13T12:36:00,mnr,31.63
2023-03-13T12:37:00,mnr,19.72
2023-03-13T12:38:00,mnr,30.05
2023-03-13T12:39:00,mnr,20.96
2023-03-13T12:40:00,mnr,22.48
2023-03-13T12:41:00,mnr,21.15
2023-03-13T12:42:00,mnr,22.43
2023-03-13T12:43:00,mnr,20.53
2023-03-13T12:44:00,mnr,21.19
2023-03-13T12:45:00,mnr,21.51
2023-03-13T12:46:00,mnr,20.87
2023-03-13T12:47:00,mnr,20.51
2023-03-13T12:48:00,mnr,20.63
2023-03-13T12:49:00,mnr,20.71
2023-03-13T12:50:00,mnr,21.20
2023-03-13T12:51:00,mnr,20.74
2023-03-13T12:52:00,mnr,21.37
2023-03-13T12:53:00,mnr,21.95
2023-03-13T12:54:00,mnr,17.60
2023-03-13T12:55:00,mnr,21.00
2023-03-13T12:56:00,mnr,21.15
2023-03-13T12:57:00,mnr,17.30
2023-03-13T12:58:00,mnr,20.56
2023-03-13T12:59:00,mnr,21.61
2023-03-13T13:00:00,mnr,22.04
2023-03-13T13:01:00,mnr,21.34
2023-03-13T13:02:00,mnr,17.75
2023-03-13T13:03:00,mnr,19.79
2023-03-13T13:04:00,mnr,20.70
2023-03-13T13:05:00,mnr,19.97
2023-03-13T13:06:00,mnr,20.39
2023-03-13T13:07:00,mnr,20.56
2023-03-13T13:08:00,mnr,21.86
2023-03-13T13:09:00,mnr,21.15
2023-03-13T13:10:00,mnr,22.12
2023-03-13T13:11:00,mnr,21.46
2023-03-13T13:12:00,mnr,22.07
2023-03-13T13:13:00,mnr,31.55
2023-03-13T13:14:00,mnr,21.88
2023-03-13T13:15:00,mnr,21.87
2023-03-13T13:16:00,mnr,21.75
2023-03-13T13:17:00,mnr,21.67
2023-03-13T13:18:00,mnr,23.05
2023-03-13T13:19:00,mnr,23.14
2023-03-13T13:20:00,mnr,23.15
2023-03-13T13:21:00,mnr,23.28
2023-03-13T13:22:00,mnr,23.39
2023-03-13T13:23:00,mnr,24.39
2023-03-13T13:24:00,mnr,22.51
2023-03-13T13:25:00,mnr,24.12
2023-03-13T13:26:00,mnr,22.76
2023-03-13T13:27:00,mnr,22.95
2023-03-13T13:28:00,mnr,21.84
2023-03-13T13:29:00,mnr,22.11
2023-03-13T13:30:00,mnr,22.27